Other Surface Observations
Issued by NWS

Home | Current Version | Previous Version | Text Only | Print | Product List | Glossary On
Versions: 1 2 3 4 5 6 7 8 9 10 11 12 13 14 15 16 17 18 19 20 21 22 23 24 25 26 27 28 29 30 31 32 33 34 35 36 37 38 39 40 41 42 43 44 45 46 47 48 49 50
000
SXUS52 KTAE 230506
OSOTAE
OSOTAE
North Florida/South Alabama/Southwest Georgia Weather Roundup
National Weather Service Tallahassee Florida
1200 AM EST THU FEB 23 2017

Note: "fair" indicates few or no clouds below 12,000 feet with no
significant weather and/or obstructions to visibility.

!FLZ017-115-028-034-025-230600
...North Florida...

CITY           SKY/WX    TMP DP  RH WIND       PRES   REMARKS
TALLAHASSEE    CLEAR     64  61  90 NE6       29.77S
APALACHICOLA   CLEAR     63  63 100 NE7       29.74F
PERRY          CLEAR     64  61  90 NE6       29.75F
CROSS CITY     PTCLDY    61  61 100 NE8       29.71S
JACKSONVILLE   CLOUDY    62  62 100 N7        29.74F
$$

!FLZ112-006-005-002-011-230600
...Florida Panhandle...

CITY           SKY/WX    TMP DP  RH WIND       PRES   REMARKS
MARIANNA       CLEAR     62  61  96 NE6       29.77F
BONIFAY        NOT AVBL
PANAMA CITY NW FAIR      63  61  93 N6        29.76S
TYNDALL AFB    CLEAR     63  62  95 NE5       29.76S
TYND DRONE APT FAIR      62  62 100 N8        29.76S
DE FUNIAK SPR  FAIR      62  60  96 NE6       29.79S
EGLIN AFB      CLEAR     62  59  91 NE5       29.76F
DESTIN         CLEAR     67  67 100 NE7       29.77F
HURLBURT       CLEAR     63  57  82 NE6       29.75F
CRESTVIEW      CLEAR     59  57  93 NE3       29.79F
PENSACOLA      CLEAR     65  59  81 NE3       29.77F
$$

!ALZ063-066-230600
...South Alabama...

CITY           SKY/WX    TMP DP  RH WIND       PRES   REMARKS
DOTHAN         CLEAR     60  60 100 NE7       29.83S
OZARK CAIRNS   CLEAR     61  59  94 NE7       29.80F
FT RUCKER HELI CLEAR     61  60  96 CALM      29.79F
RUCKER HELI 3  NOT AVBL
RUCKER HELI 2  FAIR      62  60  93 NE8       29.78F
FLORALA APT    CLEAR     61  58  90 NE6       29.80F
ANDALUSIA      CLEAR     64  60  87 E5        29.78F
TROY           CLEAR     61  60  97 NE5       29.82S
EUFALA         CLOUDY    62  59  90 NE5       29.81S
MOBILE         CLEAR     58  55  90 NW5       29.82S
$$

!GAZ120>161-230600
...Southwest and South Central Georgia...

CITY           SKY/WX    TMP DP  RH WIND       PRES   REMARKS
THOMASVILLE    CLOUDY    64  64 100 NE9       29.80S
BAINBRIDGE     CLEAR     61  59  94 E6        29.79S
MOODY AFB      CLOUDY    63  61  94 NE9       29.78S
VALDOSTA       MOCLDY    62  61  96 N9        29.78R
MOULTRIE       MOCLDY    64  61  88 NE3       29.80F
BLAKELY        CLEAR     63  59  88 CALM      29.80F
ALBANY         CLOUDY    66  62  87 E10       29.82F
TIFTON         CLOUDY    63  63 100 E7        29.80F
FITZGERALD     CLOUDY    64  64 100 E7        29.84F
CORDELE        MOCLDY    66  63  90 E6        29.83F
AMERICUS       FAIR      63  63 100 E6        29.85S
HOMERVILLE     CLOUDY    63  63 100 N6        29.79S
$$

!GMZ750-755-770-775-230600
...Coastal and Buoy Obs...

STATION/POSITION TIME  TEMP    WIND        PRES    VSBY  WAVE
                       AIR SEA DIR/SP/G                  HT/PER
                 (UTC) (F)     (DEG/KT/KT) (MB)    (MI)  (FT/S)
KEATON BEACH     0500   62      20/  7/ 10 1006.5F
CEDAR KEY        0400   65      50/ 11/ 13 1005.6R
C TOWER          0500   66      50/ 16/ 17 1007.1F
APALACHICOLA BUO 0350   67 69   40/ 12/ 14 1005.5          3/ 5
PANAMA CITY BUOY 0350   69 71              1006.1          4/ 6
MOBILE BUOY      NOT AVBL
ORANGE BCH AL BU 0350   67 68   30/ 10/ 12 1008.2          2/ 7
$$




USA.gov is the U.S. government's official web portal to all federal, state and local government web resources and services.